Weather History for KCUT - February, 2013

Change the Weather History Date:

Sunday, February 17, 2013

  Actual Average Record
Temperature  
Mean Temperature 35 °F 26 °F  
Max Temperature 45 °F 37 °F - ()
Min Temperature 24 °F 15 °F - ()
Degree Days  
Heating Degree Days 30 39  
Month to date heating degree days 643 682  
Since 1 July heating degree days 5052 5417  
Cooling Degree Days 0 0  
Month to date cooling degree days 0 0  
Year to date cooling degree days 0 0  
Moisture  
Dew Point 17 °F    
Average Humidity 50    
Maximum Humidity 69    
Minimum Humidity 31    
Precipitation  
Precipitation 0.00 in 0.02 in - ()
Month to date precipitation 0.05 0.33  
Year to date precipitation 0.85 0.66  
Sea Level Pressure  
Sea Level Pressure 29.65 in    
Wind  
Wind Speed 10 mph (West)    
Max Wind Speed 25 mph    
Max Gust Speed 37 mph    
Visibility 10 miles    
Events      
T = Trace of Precipitation, MM = Missing Value Source: NWS Daily Summary

Daily Weather History Graph

Daily Weather History Graph

Search for Another Location

Airport or City:

Trip Planner

Search our weather history database for the weather conditions in past years. The results will help you decide how hot, cold, wet, or windy it might be!

Date:

Astronomy

Feb. 17, 2013 Rise Set
Actual Time 6:49 AM MST 5:27 PM MST
Civil Twilight 6:20 AM MST 5:57 PM MST
Nautical Twilight 5:46 AM MST 6:30 PM MST
Astronomical Twilight 5:13 AM MST 7:03 PM MST
Moon 10:29 AM MST (2/17) 12:40 AM MST (2/17)
Length of Visible Light 11h 36m
Length of Day
10h 37m
Waxing Crescent, 49% of the Moon is Illuminated
Feb 17
Waxing Crescent
Feb 17
First Quarter
Feb 25
Full
Mar 4
Last Quarter
Mar 11
New

Hourly Weather History & Observations

Time (MST) Temp. Windchill Dew Point Humidity Pressure Visibility Wind Dir Wind Speed Gust Speed Precip Events Conditions
12:53 AM 30.9 °F 22.8 °F 19.9 °F 64% 29.78 in 10.0 mi WSW 9.2 mph - N/A   Clear
1:53 AM 30.9 °F 23.5 °F 19.9 °F 64% 29.75 in 10.0 mi West 8.1 mph - N/A   Clear
2:53 AM 28.9 °F 21.1 °F 19.0 °F 67% 29.73 in 10.0 mi WSW 8.1 mph - N/A   Clear
3:53 AM 28.9 °F 20.4 °F 19.0 °F 67% 29.70 in 10.0 mi WSW 9.2 mph - N/A   Clear
4:53 AM 30.0 °F 22.4 °F 18.0 °F 61% 29.70 in 10.0 mi WSW 8.1 mph - N/A   Clear
5:53 AM 30.9 °F 24.3 °F 16.0 °F 54% 29.68 in 10.0 mi WSW 6.9 mph - N/A   Clear
6:53 AM 30.9 °F 24.3 °F 16.0 °F 54% 29.65 in 10.0 mi West 6.9 mph - N/A   Clear
7:53 AM 33.1 °F 23.9 °F 17.1 °F 52% 29.63 in 10.0 mi WSW 12.7 mph 26.5 mph N/A   Clear
8:53 AM 35.1 °F 26.4 °F 16.0 °F 46% 29.61 in 10.0 mi WSW 12.7 mph 23.0 mph N/A   Clear
9:53 AM 37.0 °F 28.9 °F 16.0 °F 42% 29.59 in 10.0 mi WSW 12.7 mph 23.0 mph N/A   Clear
10:53 AM 41.0 °F 33.1 °F 16.0 °F 36% 29.57 in 10.0 mi WSW 15.0 mph 28.8 mph N/A   Clear
11:53 AM 44.1 °F 36.8 °F 16.0 °F 32% 29.52 in 10.0 mi West 16.1 mph 24.2 mph N/A   Clear
12:53 PM 42.1 °F 35.7 °F 18.0 °F 38% 29.52 in 10.0 mi WSW 11.5 mph 20.7 mph N/A   Clear
1:53 PM 42.1 °F 37.7 °F 19.0 °F 40% 29.52 in 10.0 mi Variable 6.9 mph 21.9 mph N/A   Clear
2:53 PM 39.9 °F 31.4 °F 21.0 °F 47% 29.55 in 10.0 mi West 16.1 mph 25.3 mph N/A   Clear
3:53 PM 37.0 °F 29.3 °F 21.0 °F 52% 29.59 in 10.0 mi WNW 11.5 mph 27.6 mph N/A   Clear
4:53 PM 32.0 °F 21.6 °F 18.0 °F 56% 29.64 in 10.0 mi NW 15.0 mph 25.3 mph N/A   Clear
5:53 PM 28.0 °F 18.6 °F 17.1 °F 63% 29.69 in 10.0 mi NW 10.4 mph 18.4 mph N/A   Clear
6:35 PM 28.4 °F 21.2 °F 17.6 °F 64% 29.63 in 10.0 mi Variable 6.9 mph 25.3 mph N/A   Mostly Cloudy
6:45 PM 28.4 °F 20.4 °F 17.6 °F 64% 29.63 in 10.0 mi NW 8.1 mph 18.4 mph N/A   Scattered Clouds
6:53 PM 28.0 °F 20.0 °F 18.0 °F 66% 29.70 in 10.0 mi West 8.1 mph - N/A   Scattered Clouds
7:53 PM 28.0 °F 18.1 °F 19.0 °F 69% 29.70 in 10.0 mi WNW 11.5 mph 24.2 mph N/A   Scattered Clouds
8:21 PM 28.4 °F 22.2 °F 19.4 °F 69% 29.65 in 10.0 mi Variable 5.8 mph - N/A   Mostly Cloudy
8:53 PM 26.1 °F 16.8 °F 16.0 °F 66% 29.71 in 10.0 mi NW 9.2 mph 19.6 mph N/A   Mostly Cloudy
9:03 PM 26.6 °F 16.8 °F 15.8 °F 64% 29.66 in 10.0 mi NW 10.4 mph 19.6 mph N/A   Scattered Clouds
9:10 PM 26.6 °F 16.8 °F 15.8 °F 64% 29.66 in 10.0 mi NW 10.4 mph 24.2 mph N/A   Mostly Cloudy
9:32 PM 26.6 °F 17.5 °F 15.8 °F 64% 29.65 in 10.0 mi NW 9.2 mph 24.2 mph N/A   Scattered Clouds
9:53 PM 25.0 °F 16.3 °F 15.1 °F 66% 29.71 in 10.0 mi NNW 8.1 mph 27.6 mph N/A   Clear
10:53 PM 25.0 °F 15.5 °F 14.0 °F 63% 29.70 in 10.0 mi WNW 9.2 mph - N/A   Clear
11:53 PM 24.1 °F 16.0 °F 14.0 °F 65% 29.70 in 10.0 mi NW 6.9 mph 17.3 mph N/A   Clear